Regional Weather Roundup
Issued by NWS

Home | Current Version | Previous Version | Graphics & Text | Print | Product List | Glossary On
Versions: 1 2 3 4 5 6 7 8 9 10 11 12 13 14 15 16 17 18 19 20 21 22 23 24 25 26 27 28 29 30 31 32 33 34 35 36 37 38 39 40 41 42 43 44 45 46 47 48 49 50
000
ASUS45 KBOU 262007
RWRCO

WEATHER ROUNDUP FOR COLORADO
NATIONAL WEATHER SERVICE DENVER/BOULDER CO
200 PM MDT WED APR 26 2017

NOTE: "FAIR" INDICATES FEW OR NO CLOUDS BELOW 12000 FEET WITH NO
SIGNIFICANT WEATHER AND/OR OBSTRUCTIONS TO VISIBILITY.

COZ001>005-013-030-031-262100-
...NORTHWEST COLORADO...

CITY           SKY/WX    TMP DP  RH WIND       PRES   REMARKS
CRAIG          CLOUDY    42  36  79 CALM      29.83S
HAYDEN         PTSUNNY   39  28  65 W25       29.83R
MEEKER         CLOUDY    49  33  54 VRB7      29.82F
MOUNT WERNER   NOT AVBL
STEAMBOAT SPGS CLOUDY    32  32  99 N12G22    29.83F WCI  23
WALDEN           N/A     36  27  69 W17G25    29.84R
$$

COZ006>008-011-262100-
...WEST CENTRAL VALLEYS...

CITY           SKY/WX    TMP DP  RH WIND       PRES   REMARKS
GRAND JUNCTION FAIR      58  30  34 W10       29.83F
MONTROSE       FAIR      52  26  36 VRB5      29.86F
EAGLE          PTSUNNY   46  28  49 SW31      29.83F
RIFLE          PTSUNNY   54  28  36 W18G29    29.81F
DELTA          CLOUDY    59  25  27 W6        29.83F
NUCLA          CLOUDY    55  16  21 W9G18     29.90F
$$

COZ017>023-064>068-262100-
...SOUTHWEST COLORADO...

CITY           SKY/WX    TMP DP  RH WIND       PRES   REMARKS
DURANGO        FAIR      54  17  23 W21G29    29.86F
CORTEZ         FAIR      56  24  29 W16       29.89F
PAGOSA SPRINGS PTSUNNY   49  20  31 SW9G21    29.88F
TELLURIDE      FAIR      41  17  38 W13G20    29.95F
WOLF CREEK PAS LGT SNOW  25  21  86 SW13G23   30.00S WCI  13
$$

COZ009-010-012-014-032>034-037-058>063-262100-
...CENTRAL COLORADO...

CITY           SKY/WX    TMP DP  RH WIND       PRES   REMARKS
ASPEN          PTSUNNY   42  28  57 S7        29.84F
BUENA VISTA    FAIR      51  10  19 W21G29    29.80F
COPPER MTN     FLURRIES  27  18  69 W9        29.88F WCI  17
BERTHOUD PASS  CLOUDY    18   5  57 NW20G38   29.84S WCI   1
COTTONWOOD PAS FAIR      43   9  24 SW6G22    29.84F
GUNNISON       FAIR      46  18  32 W9G22     29.86F
KREMMLING      FAIR      50  30  46 W14G21    29.82F
LEADVILLE      PTSUNNY   35  18  49 W17G24    29.85F WCI  25
MONARCH PASS     N/A     23  21  93 W37G45    29.99F WCI   4
SALIDA         PTSUNNY   51  17  26 W23G31    29.88R
SUNLIGHT       LGT SNOW  27  25  93 SW9G18    29.93S WCI  17
WILKERSON PASS CLOUDY    32  10  40 W8        29.89F WCI  25
$$

COZ069>075-262100-
...SAN LUIS VALLEY/SANGRE DE CRISTO MOUNTAINS...

CITY           SKY/WX    TMP DP  RH WIND       PRES   REMARKS
ALAMOSA        CLOUDY    47  27  45 SW14G20   29.85R
LA VETA PASS   FAIR      37  28  70 SW17G28   29.98F
SAGUACHE       FAIR      50  12  22 NW22G39   29.82F
$$

COZ035-036-038>040-262100-
...NORTHERN COLORADO FRONT RANGE...

CITY           SKY/WX    TMP DP  RH WIND       PRES   REMARKS
DENVER INTL AP FAIR      56  23  27 NE7       29.72F
DMNS CITY PARK   N/A     56  18  22 N12G20    29.71F
AURORA         PTSUNNY   57  22  26 NW15      29.72F
FRONT RANGE AP PTSUNNY   57  25  28 NW9       29.74F
ERIE MUNI ARPT FAIR      58  24  27 W6        29.72F
BOULDER MUN AP PTSUNNY   55  28  35 SE3       29.71F
CENTENNIAL     PTSUNNY   55  20  25 N13G24    29.73F
BROOMFIELD     PTSUNNY   55  25  30 CALM      29.74F
FORT COLLINS   FAIR      54  28  36 S6        29.73F
LONGMONT       FAIR      61  28  28 S6        29.73F
$$

COZ041-046-047-076>085-087-088-262100-
...PIKES PEAK/PALMER DIVIDE AND SOUTHERN FOOTHILLS...

CITY           SKY/WX    TMP DP  RH WIND       PRES   REMARKS
COLO. SPRINGS  PTSUNNY   51  27  39 VRB3      29.79F
A. F. ACADEMY  MOSUNNY   48  29  47 SE9       29.77F
SCHRIEVER AFB  PTSUNNY   49  29  45 S16       29.79S
ELLICOTT       FAIR     N/A N/A N/A NW7       29.77F
FALCON         CLOUDY    44  26  49 SW14G22   29.81R
FORT CARSON    FAIR      52  30  43 S9        29.77F
LIMON          FAIR      55  29  36 N10G21    29.76F
MONUMENT HILL  FAIR      46  27  46 SW7       29.79F
TRINIDAD       FAIR      53  36  52 VRB6      29.80F
$$

COZ042>045-048>051-090-091-262100-
...NORTHEAST COLORADO...

CITY           SKY/WX    TMP DP  RH WIND       PRES   REMARKS
GREELEY ARPT   FAIR      56  28  34 CALM      29.73F
AKRON          FAIR      55  28  35 NW12      29.73F
BURLINGTON     NOT AVBL
WRAY           NOT AVBL
STERLING       FAIR      55  30  38 W5        29.71S
HOLYOKE        FAIR      59  32  36 N7        29.73F
FORT MORGAN    CLOUDY    50  34  53 N16G22    29.75S
$$

COZ086-089-092>099-262100-
...SOUTHEAST COLORADO...

CITY           SKY/WX    TMP DP  RH WIND       PRES   REMARKS
PUEBLO         FAIR      57  34  41 E8        29.76F
LA JUNTA       FAIR      56  33  42 VRB5      29.78F
LAMAR          FAIR      59  31  34 N12G22    29.74F
SPRINGFIELD      N/A     56  31  38 NW26G36   29.77F
$$



USA.gov is the U.S. government's official web portal to all federal, state and local government web resources and services.